Regional Weather Roundup
Issued by NWS Grand Forks, ND

Home | Current Version | Previous Version | Text Only | Print | Product List | Glossary Off
Versions: 1 2 3 4 5 6 7 8 9 10 11 12 13 14 15 16 17 18 19 20 21 22 23 24 25 26 27 28 29 30 31 32 33 34 35 36 37 38 39 40 41 42 43 44 45 46 47 48 49 50

000
ASUS43 KFGF 262310
RWRFGF
PRAIRIE TO PINES  WEATHER ROUNDUP
NATIONAL WEATHER SERVICE EASTERN NORTH DAKOTA/GRAND FORKS ND
600 PM CDT SAT MAY 26 2018

 **SATELLITE DATA USED TO AUGMENT SKY COVER AT AUTOMATED STATIONS**
 *****  WEATHER ACROSS EASTERN NORTH DAKOTA  *****

CITY           SKY/WX    TMP DP  RH WIND       PRES   REMARKS
GRAND FORKS    FAIR      89  54  30 NW9G23    29.65S
GRAND FRKS AFB FAIR      89  49  24 N15       29.67S
GRAND FRKS NWS   N/A     91  54  28 N7        29.63S
DEVILS LAKE    FAIR      88  49  25 W16       29.72R
FARGO          FAIR      92  48  22 NW15G22   29.67S
WAHPETON ARPT  FAIR      91  36  14 NW8G16    29.69S
$$

 ***** WEATHER ACROSS CENTRAL AND WESTERN NORTH DAKOTA  *****

CITY           SKY/WX    TMP DP  RH WIND       PRES   REMARKS
BISMARCK       FAIR      91  52  26 VRB6      29.71F
MINOT          FAIR      92  42  17 VRB3      29.69F
JAMESTOWN      FAIR      88  54  31 NW7       29.71F
MINOT AFB      NOT AVBL
GARRISON         N/A     91  46  21 S10       29.70F
WILLISTON      FAIR      91  47  21 VRB6      29.69F
DICKINSON      FAIR      91  48  22 SE15      29.70F
HETTINGER      FAIR      88  57  34 E17       29.74F
$$

 *****  OTHER AIRPORT OBSERVATIONS IN OUR AREA  *****

CITY           SKY/WX    TMP DP  RH WIND       PRES   REMARKS
WALHALLA       FAIR      86  55  35 NW16      29.67F
GRAFTON AIRPOR FAIR      86  55  35 NW12G21   29.68S
VALLEY CITY AR FAIR      90  52  27 W10       29.73S
CANDO          FAIR      88  48  25 W14       29.72S
CAVALIER APRT    N/A     86  55  35 NW10      29.66F
GWINNER          N/A     91  46  21 NW8G14    29.71S
SHEYENNE NWR     N/A     95  46  18 NW8       29.95S HX  91
ROLLA          FAIR      86  45  23 NW14      29.73S
 ***** THE ABOVE OBSERVATIONS ARE NON NWS ARE NOT QUALITY
       CONTROLLED AND MAY MIS-REPORT RAIN FOR SNOW...
$$

  *****  WEATHER ACROSS NORTHERN MINNESOTA  *****

CITY           SKY/WX    TMP DP  RH WIND       PRES   REMARKS
FLAG ISLAND    PTSUNNY   70  59  68 CALM      29.68R
WARROAD        FAIR      82  63  51 W8        29.69S
ROSEAU         FAIR      82  61  47 NW6       29.69S
HALLOCK        FAIR      84  57  39 N9        29.67S
THF RVR FALLS  FAIR      86  55  34 NW16      29.69S
BAUDETTE         N/A    N/A N/A N/A MISG      29.68S
WASKISH        FAIR      81  63  54 CALM      29.69S
CROOKSTON      FAIR      90  52  27 NW18      29.67S
STEPHEN NDAWN    N/A     86  54  32 NW10        N/A
GREENBUSH NDAW   N/A     82  59  44 NW8         N/A
$$
  *****  WEATHER ACROSS CENTRAL AND WEST MINNESOTA  *****

CITY           SKY/WX    TMP DP  RH WIND       PRES   REMARKS
FOSSTON        FAIR      88  48  25 W10G20    29.70S
BEMIDJI        FAIR      85  54  35 W13G18    29.70S
PARK RAPIDS    FAIR      90  43  19 W18G29    29.70S
ELBOW LAKE     FAIR      90  50  25 NW8       29.71S
WADENA         FAIR      88  52  29 NW10G18   29.71S
DETROIT LAKES  FAIR      90  43  19 W10       29.72S
MOORHEAD       FAIR      93  45  18 W8        29.68S
FERGUS FALLS   FAIR      91  48  22 N10G21    29.64S
MORRIS MN      FAIR      95  45  17 NW9       29.70S HX  91
STAPLES        FAIR      90  45  20 NW15      29.71S
$$
  *****  WEATHER ELSEWHERE ACROSS MINNESOTA  *****

CITY           SKY/WX    TMP DP  RH WIND       PRES   REMARKS
DULUTH         FAIR      88  49  25 NW15      29.68R
INTRNTL FALLS  FAIR      81  57  43 NW9       29.68R
ELY            FAIR      81  55  41 NW10      29.69R
CLOQUET        FAIR      88  43  20 W10G18    29.68R
WHEATON        NOT AVBL
BRAINERD       FAIR      91  48  22 W10G23    29.70S
HIBBING        FAIR      81  56  42 W8        29.69R
ALEXANDRIA     FAIR      93  49  22 NW9       29.73S HX  90
SAINT CLOUD    FAIR      93  47  20 NW10      29.69S
MINNEAPOLIS    FAIR      93  55  27 SW10      29.69S HX  91
$$

  *****  WEATHER ACROSS SOUTH DAKOTA  *****

CITY           SKY/WX    TMP DP  RH WIND       PRES   REMARKS
SIOUX FALLS    FAIR      91  59  33 W6        29.74F HX  90
BROOKINGS      FAIR      91  56  30 NW6       29.76S
WATERTOWN      FAIR      89  56  32 N6        29.75F
HURON          FAIR      92  60  34 VRB5      29.71F HX  91
SISSETON         N/A     94  47  20 W13G18    29.69F HX  90
ABERDEEN       FAIR      97  51  21 N9        29.71S HX  94
MITCHELL       FAIR      93  62  35 CALM      29.72F HX  93
PIERRE         FAIR      89  63  41 SE14      29.69F HX  90
MOBRIDGE       FAIR      91  59  33 E3        29.70F HX  90
RAPID CITY     FAIR      88  65  46 S13       29.71F HX  90
$$

  *****  SOME WEATHER IN NEARBY STATES *****

CITY           SKY/WX    TMP DP  RH WIND       PRES   REMARKS
GLASGOW MT     FAIR      89  53  29 S5        29.68F
GREAT FALLS MT FAIR      76  49  38 N15       29.84S
CHEYENNE WY    FAIR      80  47  31 SE15G23   29.89F
SCOTTSBLUFF NE FAIR      92  56  29 SE8       29.73F HX  90
OMAHA NE       FAIR     100  55  22 CALM      29.72F HX  98
DES MOINES IA  FAIR      94  62  34 S8        29.71S HX  94
DAVENPORT IA   FAIR      90  58  33 NW5       29.76R
CHICAGO IL     FAIR      89  59  36 W8        29.72F
EAU CLAIRE WI  FAIR      92  57  30 W12G20    29.68S HX  90
LA CROSSE WI   FAIR      90  64  42 S9        29.69F HX  91
$$

  *****  SOME NATIONAL WEATHER *****

CITY           SKY/WX    TMP DP  RH WIND       PRES   REMARKS
LA GUARDIA NY  PTSUNNY   85  66  53 SE12      29.79R
RALEIGH NC     PTSUNNY   78  75  90 W6        29.90F
ATLANTA GA     PTSUNNY   82  66  58 S7        29.90S
NEW ORLEANS LA PTSUNNY   78  73  84 CALM      29.85R
OKLAHOMA CITY  PTSUNNY   87  69  54 E10       29.79F HX  91
ALBUQUERQUE NM CLOUDY    87  18   8 S14       29.92F
SALT LAKE CITY PTSUNNY   82  25  12 NW20      29.72F
LOS ANGELES CA FAIR      67  52  58 W13       29.98F
BOISE ID       CLOUDY    69  49  48 NW12      29.89R THUNDER
SEATTLE WA     CLOUDY    66  43  43 W5        30.19R
$$

*** WEATHER ACROSS MANITOBA...SASKATCHEWAN AND ONTARIO ***
                ***ONTARIO***

CITY           SKY/WX    TMP DP  RH WIND       PRES   REMARKS
GERALDTON      LGT RAIN  46  46 100 E6        29.78F
THUNDER BAY    PTSUNNY   61  57  88 VRB3      29.70R
SIOUX LOOKOUT  MOSUNNY   66  59  77 E3        29.70S
TORONTO        PTSUNNY   73  63  68 NE8       29.81R
BIG TROUT LK   CLOUDY    48  37  66 SE8       29.78F
PICKLE LAKE    CLOUDY    46  45  93 E6        29.76F
DRYDEN         MOSUNNY   73  61  64 E7        29.67S
KENORA         MOSUNNY   72  59  64 NW12      29.71R
$$
                *** MANITOBA***

CITY           SKY/WX    TMP DP  RH WIND       PRES   REMARKS
BRANDON        PTSUNNY   82  52  34 W8        29.70S
DAUPHIN        SUNNY     77  63  61 E7        29.69S
ISLAND LAKE    CLOUDY    52  48  87 SE5       29.71S
PILOT MOUND      N/A     81  50  34 NW9         N/A
THE PAS        CLOUDY    59  54  82 CALM      29.69S
THOMPSON       PTSUNNY   52  43  71 VRB2      29.68F
WINNIPEG       MOSUNNY   77  61  57 N6        29.69S
LYNN LAKE      CLOUDY    61  48  63 SW12      29.62S
CHURCHILL      CLOUDY    52  39  62 S12G18    29.67F
GILLAM         CLOUDY    50  41  71 S9        29.71R
$$
                ***SASKATCHEWAN***

CITY           SKY/WX    TMP DP  RH WIND       PRES   REMARKS
ESTEVAN        MOSUNNY   90  46  22 VRB2      29.68F
KINDERSLEY     PTSUNNY   73  55  53 N17G29    29.71R
LLOYDMINSTER   MOSUNNY   70  39  32 NW15G23   29.75R
PRINCE ALBERT  CLOUDY    72  57  60 NE5       29.69R
REGINA         PTSUNNY   86  48  26 SW6       29.64F
YORKTON        SUNNY     82  50  32 VRB5      29.68S
N. BATTLEFORD  PTSUNNY   70  59  68 NE13      29.71R
LA RONGE       NOT AVBL
SASKATOON      CLOUDY    70  59  68 E12G17    29.63R
SWIFT CURRENT  SUNNY     82  46  28 W17G29    29.68S
$$
NOTE: THESE ARE AUTOMATED STATIONS WITH LIMITED QUALITY CONTROL
      "FAIR" INDICATES FEW OR NO CLOUDS BELOW 12,000 FEET WITH NO
      SIGNIFICANT WEATHER AND/OR OBSTRUCTIONS TO VISIBILITY.
      SKY/WX - SKY CONDITION AND SIGNIFICANT WEATHER.
      TMP - AIR TEMPERATURE.    DP   - DEWPOINT TEMPERATURE.
      RH  - RELATIVE HUMIDITY.  PRES - PRESSURE.
      HX  - HEAT INDEX.         WCI  - WIND CHILL INDEX.
$




USA.gov is the U.S. government's official web portal to all federal, state and local government web resources and services.